When you browse on this site, cookies collect data to enhance your experience and personalize the content and advertising you see.
Visit our Privacy Policy to learn more. By continuing to use the site, you agree to this use of cookies and data.
  • In Portugal
  • List of Countries
  • For 7 days
  • Water Temperature
  • Weather Map
  • Weather Widgets
  • user-avatar
    Login

    Hourly Weather Evora

    Today, 31 March, Tuesday

    Time Temperature Precipitation Wind Pressure Humidity
    00:00 +8°C° 0.1 mm 4 mps 728 mmHg 96%
    01:00 +8°C° 0.1 mm 4 mps 728 mmHg 96%
    02:00 +7°C° 0.1 mm 4 mps 727 mmHg 96%
    03:00 +8°C° 0 mm 3 mps 727 mmHg 96%
    04:00 +8°C° 0 mm 3 mps 727 mmHg 95%
    05:00 +7°C° 0 mm 3 mps 727 mmHg 93%
    06:00 +8°C° 0 mm 3 mps 727 mmHg 92%
    07:00 +9°C° 0 mm 2 mps 728 mmHg 90%
    08:00 +10°C° 0 mm 2 mps 728 mmHg 89%
    09:00 +12°C° 0.4 mm 2 mps 728 mmHg 86%
    10:00 +13°C° 0.4 mm 2 mps 728 mmHg 84%
    11:00 +14°C° 0.4 mm 2 mps 728 mmHg 81%
    12:00 +13°C° 0.8 mm 3 mps 728 mmHg 79%
    13:00 +13°C° 0.8 mm 5 mps 728 mmHg 77%
    14:00 +13°C° 0.8 mm 6 mps 728 mmHg 75%
    15:00 +11°C° 0 mm 6 mps 729 mmHg 74%
    16:00 +10°C° 0 mm 5 mps 729 mmHg 74%
    17:00 +9°C° 0 mm 5 mps 730 mmHg 74%
    18:00 +7°C° 0 mm 4 mps 731 mmHg 78%
    19:00 +7°C° 0 mm 3 mps 732 mmHg 82%
    20:00 +4°C° 0 mm 3 mps 732 mmHg 87%
    21:00 +5°C° 0 mm 2 mps 733 mmHg 87%
    22:00 +4°C° 0 mm 2 mps 733 mmHg 87%
    23:00 +5°C° 0 mm 1 mps 734 mmHg 87%

    Tomorrow, 1 April, Wednesday

    Time Temperature Precipitation Wind Pressure Humidity
    00:00 +5°C° 0 mm 1 mps 734 mmHg 86%
    01:00 +5°C° 0 mm 1 mps 734 mmHg 85%
    02:00 +4°C° 0 mm 2 mps 734 mmHg 84%
    03:00 +4°C° 0 mm 2 mps 734 mmHg 84%
    04:00 +3°C° 0 mm 3 mps 734 mmHg 85%
    05:00 +3°C° 0 mm 3 mps 734 mmHg 85%
    06:00 +5°C° 0.1 mm 4 mps 734 mmHg 80%
    07:00 +7°C° 0.1 mm 4 mps 734 mmHg 75%
    08:00 +9°C° 0.1 mm 5 mps 735 mmHg 71%
    09:00 +9°C° 0.8 mm 5 mps 735 mmHg 74%
    10:00 +9°C° 0.8 mm 5 mps 735 mmHg 77%
    11:00 +10°C° 0.8 mm 4 mps 735 mmHg 80%
    12:00 +11°C° 1.1 mm 4 mps 734 mmHg 78%
    13:00 +11°C° 1.1 mm 4 mps 734 mmHg 76%
    14:00 +11°C° 1.1 mm 3 mps 734 mmHg 74%
    15:00 +11°C° 1 mm 3 mps 734 mmHg 79%
    16:00 +10°C° 1 mm 2 mps 733 mmHg 85%
    17:00 +9°C° 1 mm 2 mps 733 mmHg 90%
    18:00 +9°C° 2 mm 2 mps 734 mmHg 92%
    19:00 +8°C° 2 mm 3 mps 734 mmHg 94%
    20:00 +8°C° 2 mm 3 mps 734 mmHg 95%
    21:00 +8°C° 0.6 mm 3 mps 734 mmHg 96%
    22:00 +7°C° 0.6 mm 2 mps 734 mmHg 96%
    23:00 +7°C° 0.6 mm 2 mps 734 mmHg 97%

    Day after tomorrow, 2 April, Thursday

    Time Temperature Precipitation Wind Pressure Humidity
    00:00 +7°C° 0.3 mm 2 mps 733 mmHg 97%
    01:00 +6°C° 0.3 mm 2 mps 733 mmHg 97%
    02:00 +5°C° 0.3 mm 3 mps 733 mmHg 97%
    03:00 +5°C° 0.1 mm 3 mps 733 mmHg 97%
    04:00 +5°C° 0.1 mm 3 mps 733 mmHg 96%
    05:00 +5°C° 0.1 mm 4 mps 733 mmHg 96%
    06:00 +6°C° 0.1 mm 4 mps 733 mmHg 94%
    07:00 +7°C° 0.1 mm 5 mps 734 mmHg 92%
    08:00 +7°C° 0.1 mm 5 mps 734 mmHg 89%
    09:00 +8°C° 0.1 mm 6 mps 734 mmHg 83%
    10:00 +10°C° 0.1 mm 6 mps 735 mmHg 76%
    11:00 +11°C° 0.1 mm 6 mps 735 mmHg 69%
    12:00 +13°C° 0.1 mm 6 mps 735 mmHg 67%
    13:00 +14°C° 0.1 mm 5 mps 735 mmHg 64%
    14:00 +15°C° 0.1 mm 5 mps 735 mmHg 61%
    15:00 +14°C° 0 mm 4 mps 735 mmHg 64%
    16:00 +14°C° 0 mm 3 mps 735 mmHg 67%
    17:00 +15°C° 0 mm 2 mps 735 mmHg 70%
    18:00 +13°C° 0 mm 2 mps 736 mmHg 77%
    19:00 +10°C° 0 mm 2 mps 736 mmHg 83%
    20:00 +9°C° 0 mm 2 mps 736 mmHg 89%
    21:00 +8°C° 0 mm 2 mps 736 mmHg 91%
    22:00 +8°C° 0 mm 2 mps 736 mmHg 92%
    23:00 +8°C° 0 mm 1 mps 736 mmHg 94%

    3 April, Friday

    Time Temperature Precipitation Wind Pressure Humidity
    00:00 +8°C° 0 mm 1 mps 736 mmHg 93%
    01:00 +8°C° 0 mm 1 mps 736 mmHg 93%
    02:00 +6°C° 0 mm 0 mps 736 mmHg 92%
    03:00 +6°C° 0 mm 0 mps 736 mmHg 92%
    04:00 +6°C° 0 mm 0 mps 736 mmHg 92%
    05:00 +6°C° 0 mm 0 mps 736 mmHg 92%
    06:00 +9°C° 0 mm 1 mps 736 mmHg 87%
    07:00 +11°C° 0 mm 1 mps 736 mmHg 81%
    08:00 +13°C° 0 mm 2 mps 737 mmHg 76%
    09:00 +15°C° 0 mm 2 mps 737 mmHg 69%
    10:00 +17°C° 0 mm 2 mps 737 mmHg 63%
    11:00 +18°C° 0 mm 2 mps 737 mmHg 56%
    12:00 +19°C° 0 mm 2 mps 736 mmHg 54%
    13:00 +20°C° 0 mm 2 mps 736 mmHg 52%
    14:00 +20°C° 0 mm 2 mps 736 mmHg 50%
    15:00 +19°C° 0 mm 2 mps 735 mmHg 55%
    16:00 +19°C° 0 mm 2 mps 735 mmHg 61%
    17:00 +18°C° 0 mm 2 mps 735 mmHg 66%
    18:00 +16°C° 0 mm 2 mps 735 mmHg 71%
    19:00 +14°C° 0 mm 2 mps 735 mmHg 75%
    20:00 +13°C° 0 mm 2 mps 735 mmHg 79%
    21:00 +12°C° 0 mm 1 mps 735 mmHg 82%
    22:00 +11°C° 0 mm 1 mps 735 mmHg 85%
    23:00 +10°C° 0 mm 1 mps 735 mmHg 88%

    4 April, Saturday

    Time Temperature Precipitation Wind Pressure Humidity
    00:00 +10°C° 0 mm 1 mps 735 mmHg 89%
    01:00 +9°C° 0 mm 2 mps 734 mmHg 90%
    02:00 +9°C° 0 mm 2 mps 734 mmHg 91%
    03:00 +9°C° 0 mm 2 mps 734 mmHg 92%
    04:00 +8°C° 0 mm 2 mps 734 mmHg 92%
    05:00 +8°C° 0 mm 2 mps 733 mmHg 93%
    06:00 +9°C° 0 mm 3 mps 733 mmHg 86%
    07:00 +11°C° 0 mm 4 mps 733 mmHg 79%
    08:00 +13°C° 0 mm 5 mps 733 mmHg 72%
    09:00 +14°C° 0 mm 5 mps 733 mmHg 68%
    10:00 +15°C° 0 mm 6 mps 734 mmHg 65%
    11:00 +16°C° 0 mm 6 mps 734 mmHg 61%
    12:00 +17°C° 0 mm 7 mps 733 mmHg 60%
    13:00 +17°C° 0 mm 7 mps 733 mmHg 59%
    14:00 +18°C° 0 mm 7 mps 733 mmHg 58%
    15:00 +17°C° 0 mm 7 mps 733 mmHg 64%
    16:00 +15°C° 0 mm 7 mps 733 mmHg 70%
    17:00 +14°C° 0 mm 6 mps 733 mmHg 76%
    18:00 +13°C° 0 mm 6 mps 733 mmHg 78%
    19:00 +13°C° 0 mm 6 mps 733 mmHg 81%
    20:00 +11°C° 0 mm 6 mps 733 mmHg 83%
    21:00 +11°C° 0 mm 6 mps 733 mmHg 84%
    22:00 +11°C° 0 mm 7 mps 733 mmHg 85%
    23:00 +11°C° 0 mm 7 mps 734 mmHg 86%

    5 April, Sunday

    Time Temperature Precipitation Wind Pressure Humidity
    00:00 +12°C° 0 mm 7 mps 733 mmHg 86%
    01:00 +12°C° 0 mm 7 mps 733 mmHg 86%
    02:00 +12°C° 0 mm 8 mps 733 mmHg 86%
    03:00 +12°C° 0.5 mm 7 mps 733 mmHg 88%
    04:00 +12°C° 0.5 mm 7 mps 733 mmHg 90%
    05:00 +12°C° 0.5 mm 7 mps 733 mmHg 93%
    06:00 +14°C° 0.5 mm 7 mps 733 mmHg 92%
    07:00 +14°C° 0.5 mm 7 mps 733 mmHg 91%
    08:00 +15°C° 0.5 mm 7 mps 733 mmHg 90%
    09:00 +16°C° 1.2 mm 7 mps 733 mmHg 87%
    10:00 +17°C° 1.2 mm 7 mps 734 mmHg 84%
    11:00 +17°C° 1.2 mm 7 mps 734 mmHg 81%
    12:00 +17°C° 1.3 mm 7 mps 734 mmHg 80%
    13:00 +17°C° 1.3 mm 7 mps 734 mmHg 79%
    14:00 +17°C° 1.3 mm 7 mps 734 mmHg 78%
    15:00 +17°C° 0.3 mm 6 mps 734 mmHg 80%
    16:00 +16°C° 0.3 mm 5 mps 735 mmHg 82%
    17:00 +15°C° 0.3 mm 5 mps 735 mmHg 83%
    18:00 +14°C° 0 mm 4 mps 735 mmHg 88%
    19:00 +13°C° 0 mm 3 mps 736 mmHg 92%
    20:00 +13°C° 0 mm 2 mps 736 mmHg 96%
    21:00 +12°C° 0 mm 2 mps 737 mmHg 97%
    22:00 +12°C° 0 mm 2 mps 737 mmHg 97%
    23:00 +12°C° 0 mm 1 mps 737 mmHg 98%
    Show more